TimeEST,TemperatureF,Dew PointF,Humidity,Sea Level PressureIn,VisibilityMPH,Wind Direction,Wind SpeedMPH,Gust SpeedMPH,PrecipitationIn,Events,Conditions,WindDirDegrees,DateUTC
12:18 AM,23.0,17.6,80,30.06,10.0,NW,6.9,-,N/A,Snow,Light Snow,310,2013-03-03 05:18:00
12:30 AM,23.0,17.6,80,30.06,10.0,NW,6.9,-,N/A,Snow,Light Snow,320,2013-03-03 05:30:00
12:37 AM,23.0,17.6,80,30.06,10.0,NW,8.1,-,N/A,,Overcast,320,2013-03-03 05:37:00
12:43 AM,23.0,17.6,80,30.06,10.0,NW,5.8,-,N/A,Snow,Light Snow,320,2013-03-03 05:43:00
12:55 AM,23.5,16.9,76,30.06,10.0,NW,6.9,-,0.00,Snow,Light Snow,320,2013-03-03 05:55:00
1:22 AM,23.0,15.8,74,30.06,10.0,NW,8.1,-,N/A,,Overcast,320,2013-03-03 06:22:00
1:32 AM,23.0,15.8,74,30.06,10.0,NW,10.4,-,N/A,,Overcast,310,2013-03-03 06:32:00
1:42 AM,23.0,15.8,74,30.06,10.0,NNW,10.4,-,N/A,Snow,Light Snow,330,2013-03-03 06:42:00
1:55 AM,23.2,16.0,74,30.06,10.0,NW,8.1,-,0.00,Snow,Light Snow,310,2013-03-03 06:55:00
2:55 AM,22.6,17.1,79,30.04,10.0,NW,9.2,-,0.00,Snow,Light Snow,310,2013-03-03 07:55:00
3:55 AM,22.3,16.2,77,30.03,10.0,NW,6.9,-,0.00,Snow,Light Snow,320,2013-03-03 08:55:00
4:14 AM,23.0,15.8,74,30.02,10.0,WNW,9.2,-,N/A,,Overcast,300,2013-03-03 09:14:00
4:54 AM,23.0,15.8,74,30.02,10.0,WNW,10.4,-,N/A,Snow,Light Snow,290,2013-03-03 09:54:00
4:55 AM,22.5,14.9,73,30.02,10.0,WNW,9.2,-,0.00,Snow,Light Snow,300,2013-03-03 09:55:00
5:02 AM,23.0,14.0,68,30.02,10.0,WNW,8.1,-,N/A,,Overcast,300,2013-03-03 10:02:00
5:11 AM,23.0,14.0,68,30.03,10.0,WNW,11.5,-,N/A,Snow,Light Snow,300,2013-03-03 10:11:00
5:25 AM,23.0,14.0,68,30.03,10.0,WNW,11.5,-,N/A,,Overcast,290,2013-03-03 10:25:00
5:28 AM,23.0,15.8,74,30.03,10.0,WNW,10.4,-,N/A,Snow,Light Snow,300,2013-03-03 10:28:00
5:32 AM,23.0,14.0,68,30.03,10.0,NW,8.1,-,N/A,,Overcast,310,2013-03-03 10:32:00
5:36 AM,23.0,14.0,68,30.03,10.0,WNW,8.1,-,N/A,Snow,Light Snow,300,2013-03-03 10:36:00
5:55 AM,22.6,15.1,73,30.03,10.0,WNW,10.4,-,0.00,Snow,Light Snow,300,2013-03-03 10:55:00
6:07 AM,23.0,15.8,74,30.04,10.0,NW,6.9,-,N/A,,Overcast,310,2013-03-03 11:07:00
6:21 AM,23.0,14.0,68,30.04,10.0,WNW,9.2,-,N/A,Snow,Light Snow,290,2013-03-03 11:21:00
6:27 AM,23.0,14.0,68,30.04,10.0,WNW,9.2,-,N/A,,Overcast,300,2013-03-03 11:27:00
6:30 AM,23.0,14.0,68,30.04,10.0,WNW,10.4,-,N/A,Snow,Light Snow,300,2013-03-03 11:30:00
6:53 AM,23.0,14.0,68,30.04,10.0,NW,6.9,-,N/A,,Overcast,310,2013-03-03 11:53:00
6:55 AM,22.5,14.9,73,30.04,10.0,NW,8.1,-,0.00,,Overcast,320,2013-03-03 11:55:00
6:58 AM,23.0,15.8,74,30.04,10.0,NW,10.4,-,N/A,Snow,Light Snow,310,2013-03-03 11:58:00
7:01 AM,23.0,14.0,68,30.04,10.0,NW,10.4,-,N/A,,Overcast,310,2013-03-03 12:01:00
7:03 AM,23.0,14.0,68,30.04,10.0,WNW,11.5,-,N/A,Snow,Light Snow,300,2013-03-03 12:03:00
7:13 AM,21.2,14.0,74,30.04,10.0,NW,11.5,-,N/A,,Overcast,310,2013-03-03 12:13:00
7:15 AM,21.2,14.0,74,30.04,10.0,NW,11.5,-,N/A,,Overcast,310,2013-03-03 12:15:00
7:16 AM,21.2,14.0,74,30.04,10.0,NW,10.4,-,N/A,Snow,Light Snow,310,2013-03-03 12:16:00
7:44 AM,21.2,14.0,74,30.05,10.0,WNW,11.5,-,N/A,Snow,Light Snow,290,2013-03-03 12:44:00
7:55 AM,21.4,14.4,74,30.05,10.0,NW,9.2,-,0.00,Snow,Light Snow,310,2013-03-03 12:55:00
8:03 AM,21.2,14.0,74,30.05,10.0,WNW,9.2,-,N/A,,Overcast,300,2013-03-03 13:03:00
8:41 AM,21.2,14.0,74,30.05,10.0,NW,10.4,-,N/A,,Overcast,320,2013-03-03 13:41:00
8:54 AM,21.2,14.0,74,30.06,10.0,WNW,10.4,-,N/A,,Mostly Cloudy,300,2013-03-03 13:54:00
8:55 AM,20.7,13.1,73,30.06,10.0,WNW,10.4,-,0.00,,Mostly Cloudy,300,2013-03-03 13:55:00
9:55 AM,23.7,14.4,67,30.05,10.0,NW,9.2,-,N/A,,Clear,310,2013-03-03 14:55:00
10:55 AM,25.7,14.5,63,30.05,10.0,NW,11.5,-,N/A,,Scattered Clouds,310,2013-03-03 15:55:00
10:59 AM,24.8,14.0,64,30.04,10.0,NW,10.4,-,N/A,,Mostly Cloudy,320,2013-03-03 15:59:00
11:48 AM,26.6,14.0,59,30.04,10.0,NW,12.7,-,N/A,,Scattered Clouds,320,2013-03-03 16:48:00
11:55 AM,25.7,14.4,62,30.04,10.0,WNW,11.5,-,N/A,,Scattered Clouds,300,2013-03-03 16:55:00
12:29 PM,26.6,14.0,59,30.04,10.0,NW,13.8,-,N/A,,Mostly Cloudy,320,2013-03-03 17:29:00
12:55 PM,26.2,13.3,58,30.03,10.0,NNW,10.4,-,N/A,,Mostly Cloudy,330,2013-03-03 17:55:00
1:01 PM,26.6,14.0,59,30.03,10.0,WNW,10.4,-,N/A,,Mostly Cloudy,300,2013-03-03 18:01:00
1:55 PM,26.6,13.6,58,30.02,10.0,NW,11.5,-,N/A,,Mostly Cloudy,320,2013-03-03 18:55:00
2:36 PM,26.6,15.8,64,30.01,10.0,NNW,15.0,-,N/A,,Overcast,340,2013-03-03 19:36:00
2:55 PM,25.7,15.6,66,30.02,10.0,NNW,13.8,21.9,N/A,,Overcast,340,2013-03-03 19:55:00
3:13 PM,24.8,15.8,69,30.02,10.0,NNW,15.0,21.9,N/A,,Overcast,330,2013-03-03 20:13:00
3:15 PM,24.8,15.8,69,30.02,10.0,North,16.1,21.9,N/A,,Overcast,350,2013-03-03 20:15:00
3:16 PM,24.8,15.8,69,30.02,10.0,North,15.0,21.9,N/A,,Overcast,350,2013-03-03 20:16:00
3:18 PM,24.8,14.0,64,30.02,10.0,NNW,16.1,21.9,N/A,,Overcast,340,2013-03-03 20:18:00
3:25 PM,24.8,14.0,64,30.02,10.0,NNW,16.1,-,N/A,,Overcast,340,2013-03-03 20:25:00
3:36 PM,24.8,15.8,69,30.02,10.0,NNW,13.8,-,N/A,,Overcast,340,2013-03-03 20:36:00
3:44 PM,24.8,14.0,64,30.03,10.0,NNW,12.7,-,N/A,,Overcast,340,2013-03-03 20:44:00
3:55 PM,24.3,14.9,68,30.03,10.0,North,11.5,17.3,0.00,,Overcast,350,2013-03-03 20:55:00
4:26 PM,23.0,14.0,68,30.04,10.0,North,11.5,-,N/A,,Overcast,360,2013-03-03 21:26:00
4:36 PM,23.0,14.0,68,30.04,10.0,NNW,12.7,-,N/A,,Overcast,340,2013-03-03 21:36:00
4:51 PM,23.0,14.0,68,30.04,10.0,North,11.5,-,N/A,,Overcast,350,2013-03-03 21:51:00
4:55 PM,23.5,14.2,67,30.04,10.0,NNW,9.2,-,0.00,,Overcast,330,2013-03-03 21:55:00
5:55 PM,23.4,14.0,67,30.05,10.0,NNW,6.9,-,N/A,,Overcast,340,2013-03-03 22:55:00
6:24 PM,23.0,14.0,68,30.06,10.0,NNW,4.6,-,N/A,,Scattered Clouds,340,2013-03-03 23:24:00
6:55 PM,21.9,13.3,69,30.06,10.0,Calm,Calm,-,N/A,,Clear,0,2013-03-03 23:55:00
7:55 PM,22.3,13.3,68,30.07,10.0,Calm,Calm,-,N/A,,Clear,0,2013-03-04 00:55:00
8:55 PM,20.3,15.4,81,30.07,10.0,Calm,Calm,-,N/A,,Overcast,0,2013-03-04 01:55:00
9:09 PM,21.2,15.8,80,30.07,10.0,Calm,Calm,-,N/A,,Overcast,0,2013-03-04 02:09:00
9:27 PM,21.2,17.6,86,30.07,10.0,Calm,Calm,-,N/A,,Overcast,0,2013-03-04 02:27:00
9:55 PM,22.1,17.4,82,30.07,10.0,Calm,Calm,-,N/A,,Overcast,0,2013-03-04 02:55:00
10:55 PM,22.8,16.7,77,30.06,10.0,SW,3.5,-,N/A,,Overcast,220,2013-03-04 03:55:00
11:55 PM,19.2,14.9,83,30.06,10.0,NE,4.6,-,N/A,,Clear,50,2013-03-04 04:55:00